Location: Bishausen
(51.6334°N, 9.9631°E)
Time: 03:00:25
(UTC+00:00)

Daily predictions for brighter satellites

Satellite Brightness Start Highest point End
(mag) Time Altitude Azimuth Time Altitude Azimuth Time Altitude Azimuth
Cosmos 2228 Rocket 3.0 00:05:20 33° S 00:07:18 88° W 00:11:51 10° N
Meteor 1-21 4.4 00:04:42 26° S 00:07:56 69° E 00:13:39 10° NNE
Helios 1A Rocket 2.8 00:07:43 29° SSE 00:09:36 76° ENE 00:13:28 10° NNW
Cosmos 2082 Rocket 2.4 00:07:01 27° S 00:10:03 61° ESE 00:15:42 10° NE
Cosmos 1833 Rocket 3.3 00:08:10 17° WSW 00:12:24 50° NW 00:17:53 10° NNE
BREEZE-M DEB (TANK) 3.7 00:13:11 32° SSW 00:13:37 32° SSW 00:20:15 10° SE
Cosmos 724 4.3 00:12:02 23° SW 00:15:55 87° NW 00:21:47 10° NE
CZ-2D R/B 4.1 00:12:44 10° NE 00:16:50 21° E 00:20:54 10° SE
Cosmos 1908 Rocket 4.2 00:14:52 10° N 00:19:14 53° ENE 00:22:20 18° SSE
Cosmos 2360 Rocket 3.8 00:15:25 10° NNW 00:20:36 34° NE 00:25:46 10° ESE
USA 267 3.2 00:17:08 10° ENE 00:23:43 89° SSE 00:30:17 10° WSW
Cosmos 1140 Rocket 4.4 00:22:27 17° WSW 00:26:12 41° NW 00:31:09 10° NNE
Cosmos 1455 2.6 00:25:54 10° N 00:29:18 51° ENE 00:31:18 22° SE
Cosmos 1733 Rocket 3.5 00:26:00 10° NNW 00:30:08 44° W 00:31:54 28° SSW
Cosmos 841 Rocket 3.6 00:26:08 10° NNW 00:31:24 77° ENE 00:36:21 12° SSE
Resurs 1-4 Rocket 3.6 00:27:16 10° NE 00:31:44 27° E 00:36:00 11° SSE
Nimbus 7 Rocket 4.4 00:26:46 10° NNE 00:32:48 85° WNW 00:36:43 23° SSW
GP-B 4.4 00:29:10 10° NNW 00:32:56 28° WNW 00:35:02 19° WSW
Cosmos 1400 Rocket 3.4 00:32:16 27° SW 00:34:04 47° WNW 00:37:56 10° N
H-2A R/B 3.7 00:32:26 10° N 00:36:11 27° WNW 00:38:59 15° WSW
Cosmos 2278 3.7 00:34:58 10° NNW 00:40:44 89° WSW 00:46:28 10° SSE
NOSS 3-4 (A) 4.4 00:36:09 10° NW 00:42:24 37° WSW 00:47:10 19° S
NOSS 3-4 (C) 4.4 00:36:15 10° NW 00:42:30 37° WSW 00:47:19 19° S
Cosmos 1346 Rocket 3.2 00:40:06 10° NNW 00:43:48 44° W 00:45:17 29° SSW
Cosmos 676 Rocket 4.0 00:42:47 24° SSW 00:46:03 83° ESE 00:51:25 10° NNE
Cosmos 468 Rocket 4.5 00:41:54 10° NW 00:46:56 44° WSW 00:49:48 23° SSW
Cosmos 2251 Rocket 4.3 00:44:26 17° WSW 00:48:11 43° NW 00:53:14 10° NNE
SL-08 R/B 4.5 00:44:05 22° SSW 00:48:18 84° W 00:54:30 10° N
Cosmos 407 Rocket 4.5 00:44:27 16° WSW 00:48:20 40° NW 00:53:18 10° NNE
Okean 2 3.2 00:49:49 27° S 00:51:55 89° ENE 00:55:55 10° N
Cosmos 1954 Rocket 4.1 00:48:42 23° SSW 00:52:06 77° WNW 00:57:27 10° NNE
Cosmos 1745 Rocket 4.2 00:48:37 18° S 00:53:23 71° E 00:59:39 10° NNE
Cosmos 2333 Rocket 3.2 00:47:57 10° NNW 00:53:31 49° NE 00:59:04 10° SE
CZ-2C R/B 3.1 00:48:34 10° SSE 00:53:37 58° ENE 00:58:43 10° N
Meteor 1-4 Rocket 2.2 00:53:08 33° S 00:54:16 66° E 00:57:14 10° NNE
Cosmos 1190 Rocket 4.4 00:51:10 20° SW 00:54:42 58° WNW 00:59:58 10° NNE
Cosmos 1300 4.3 00:55:59 10° NW 00:58:28 18° W 00:59:22 16° WSW
Cosmos 2322 Rocket 2.6 00:52:48 10° NNW 00:58:28 68° ENE 01:04:06 10° SE
USA 234 3.9 00:56:30 12° S 01:01:43 33° SW 01:07:32 10° WNW
Cosmos 1703 Rocket 3.6 00:58:54 22° S 01:01:44 82° E 01:06:13 10° NNE
Cosmos 1953 2.5 00:59:25 10° NNW 01:03:15 54° W 01:05:20 24° SSW
SL-8 R/B 4.4 01:00:54 10° W 01:05:04 30° SSW 01:09:13 10° SSE
NPP 4.0 01:00:52 10° NNE 01:06:14 61° ESE 01:10:34 16° S
Aureole 3 4.3 01:09:14 18° WSW 01:10:23 22° WNW 01:12:51 10° NNW
Cosmos 1980 Rocket 3.6 01:07:38 10° NW 01:11:46 21° W 01:14:01 17° SW
Nadezhda 1 Rocket 4.1 01:06:38 10° NNW 01:12:59 65° W 01:18:17 15° S
Cosmos 1242 Rocket 3.0 01:13:25 18° SSE 01:15:10 39° E 01:17:54 10° NNE
Cosmos 1300 Rocket 3.5 01:12:04 10° N 01:16:25 85° E 01:20:25 12° SSE
ADEOS II 3.1 01:14:01 10° NNE 01:19:00 42° E 01:23:57 10° SSE
MOZ.5/SAFIR/RUBIN 5/SL-8 4.3 01:18:21 19° SSW 01:21:26 43° W 01:25:56 10° NNW
Cosmos 1408 3.1 01:21:24 15° SSE 01:23:37 40° E 01:26:28 10° NNE
IDEFIX/ARIANE 42P 2.6 01:18:50 10° NNE 01:24:08 85° ESE 01:28:28 15° SSW
COSMOS 2406 3.7 01:19:32 15° SW 01:24:10 55° NW 01:29:51 10° NNE
Lacrosse 5 rocket 1.6 01:21:08 10° WNW 01:25:00 40° SW 01:28:42 10° SSE
Cosmos 839 Rocket 4.4 01:18:31 10° NW 01:26:12 79° NE 01:32:34 10° SE
ALOS 4.0 01:22:44 10° NE 01:26:43 27° E 01:30:39 10° SSE
EXPRESS MD2 4.2 01:27:55 19° S 01:29:10 25° SE 01:32:40 10° E
Okean 1-7 4.0 01:30:04 17° SW 01:32:54 35° WNW 01:36:53 10° N
ATLAS 2AS CENTAUR R/B 3.0 01:33:13 10° NW 01:40:10 71° NE 01:46:49 10° SE
Cosmos 1315 Rocket 3.4 01:39:37 17° SW 01:42:18 41° WNW 01:46:03 10° N
CZ-2C R/B 3.5 01:36:45 10° NNE 01:42:36 73° ESE 01:48:20 10° S
SL-16 R/B 2.6 01:37:23 10° NW 01:42:44 43° WSW 01:48:03 10° S
SJ 16-02 1.9 01:39:50 11° S 01:43:45 51° ESE 01:47:57 10° NNE
UNK 4.4 01:45:09 10° SSE 01:49:42 58° ENE 01:54:16 10° N
Cosmos 2333 4.3 01:44:09 10° NNW 01:49:54 87° ENE 01:55:40 10° SSE
Cosmos 1850 Rocket 4.1 01:46:14 14° SSW 01:50:48 75° WNW 01:56:06 10° NNE
Cosmos 2082 Rocket 3.5 01:49:21 10° WSW 01:54:30 33° NW 01:59:40 10° NNE
Cosmos 1709 Rocket 4.2 01:49:42 12° SSW 01:55:33 65° WNW 02:01:55 10° N
Cosmos 1741 Rocket 4.1 01:51:18 13° SSW 01:55:55 72° WNW 02:01:13 10° NNE
Cosmos 2219 Rocket 2.5 01:50:27 10° NNW 01:56:08 75° ENE 02:01:47 10° SE
Cosmos 1782 Rocket 4.4 01:52:11 10° NNW 01:56:08 34° W 01:59:38 12° SSW
Cosmos 2181 Rocket 4.1 01:50:19 10° N 01:56:45 85° W 02:03:02 10° S
SL-16 R/B 2.6 01:50:46 10° SSE 01:57:03 82° WSW 02:03:22 10° NNW
CZ-2D R/B 2.3 01:51:56 10° NNE 01:57:25 73° WNW 02:02:42 11° SSW
Cosmos 1455 4.1 02:01:39 10° NW 02:03:22 13° W 02:05:04 10° WSW
AQUA 3.9 01:58:56 10° NNE 02:03:41 79° ESE 02:08:24 10° SSW
Cosmos 1703 3.1 02:00:04 10° S 02:03:48 89° E 02:07:34 10° N
Meteor 1-28 Rocket 3.1 02:00:35 10° S 02:04:08 62° WSW 02:07:41 10° NNW
COSMOS 2428 3.9 01:58:54 10° NNW 02:04:25 48° NE 02:09:54 10° SE
Cosmos 2360 Rocket 2.3 01:59:20 10° NW 02:04:54 57° WSW 02:10:26 10° S
USA 267 3.9 02:00:10 10° ENE 02:06:34 59° N 02:12:57 10° W
Cosmos 968 Rocket 3.5 02:02:10 11° SSW 02:07:01 78° WNW 02:12:11 10° NNE
Genesis I 3.2 02:05:37 12° SSW 02:08:47 63° SE 02:12:20 10° NE
RESURS DK-1 2.3 02:05:07 10° NW 02:09:09 61° WSW 02:13:09 10° SSE
Meteor 1-24 Rocket 4.0 02:03:41 10° S 02:09:43 83° E 02:15:44 10° NNE
MSX 4.2 02:04:43 10° N 02:10:18 55° WNW 02:15:52 10° SW
Resurs 1-4 Rocket 2.5 02:06:42 10° N 02:11:50 54° WNW 02:16:55 10° SW
SAR-Lupe-4 3.9 02:10:41 10° NNE 02:14:15 66° ESE 02:17:48 10° S
Cosmos 2237 Rocket 4.4 02:13:29 10° NNW 02:18:34 31° NE 02:23:35 10° ESE
FENGYUN 3A 3.7 02:15:57 10° NNE 02:21:20 72° WNW 02:26:39 10° SSW
IRAS Rocket 4.4 02:16:22 10° NNE 02:21:56 78° ESE 02:27:24 10° SSW
Geosat 4.0 02:26:58 10° SSE 02:31:58 75° WSW 02:37:01 10° NNW
CZ-2C R/B 3.7 02:30:07 10° SW 02:34:17 24° W 02:38:28 10° NW
Cosmos 2221 Rocket 3.8 02:30:18 10° S 02:34:50 82° E 02:39:24 10° NNE
ASTEX 1 4.2 02:30:52 10° SSE 02:35:41 56° ENE 02:40:30 10° N
Cosmos 2333 Rocket 2.8 02:32:29 10° NW 02:37:41 37° WSW 02:42:54 10° S
